User: anonymous   Login
Location: Biharia
(46.4333°N, 22.8000°E)
Time: 18:34:53
(UTC+00:00)
Language:

HJ-1C - Orbit

View from above orbital plane
View from above orbital plane
View from above satellite
View from above satellite

Ground track
Ground track

The orbit data is extracted from the following two-line orbital elements,

1 38997U 12064A   22021.28197493  .00011328  00000-0  22569-3 0  9991
2 38997  97.0998  50.8776 0010080  48.1093  16.8076 15.46997437515720
Epoch (UTC): 21 January 2022 06:46:02
Eccentricity: 0.0010080
inclination: 97.0998°
perigee height: 418 km
apogee height: 432 km
right ascension of ascending node: 50.8776°
argument of perigee: 48.1093°
revolutions per day: 15.46997437
mean anomaly at epoch: 16.8076°
orbit number at epoch: 51572

The dashed part of the orbit path shows where the satellite is in the earth's shadow,  

DLR